Location: Gradaro
(45.0833°N, 10.8833°E)
Time: 09:09:58
(UTC+00:00)

FENGYUN 1C DEB - Pass Details

Date: 03 July 2021
Orbit: 803 x 830 km, 98.8° (Epoch: 28 July)

Event Time Altitude Azimuth Distance (km) Brightness Sun altitude
Exits shadow 20:02:55 - 108° (ESE) 2,652 ? -8.5°
Reaches altitude 10° 20:03:48 10° 101° (ESE) 2,405 ? -8.6°
Maximum altitude 20:07:24 19° 59° (ENE) 1,873 ? -9.0°
Drops below altitude 10° 20:11:01 10° 16° (NNE) 2,427 ? -9.5°
Sets 20:14:01 0° 359° (N) 3,370 ? -9.8°
